Worcester, MA

9:33 AM EDT on March 24, 2017 (GMT -0400)
Worcester Regional

Weather History for KORH - May, 2014

Change the Weather History Date:

Wednesday, May 14, 2014

  Actual Average Record
Temperature  
Mean Temperature 58 °F 56 °F  
Max Temperature 72 °F 66 °F 87 °F (1961)
Min Temperature 43 °F 46 °F 33 °F (1939)
Degree Days  
Heating Degree Days 7 10  
Month to date heating degree days 135 161  
Since 1 July heating degree days 6900 6508  
Cooling Degree Days 0 0  
Month to date cooling degree days 6 0  
Year to date cooling degree days 6 3  
Growing Degree Days 8 (Base 50)    
Moisture  
Dew Point 44 °F    
Average Humidity 59    
Maximum Humidity 84    
Minimum Humidity 34    
Precipitation  
Precipitation 0.00 in 0.13 in 1.43 in (1962)
Month to date precipitation 1.33 1.76  
Year to date precipitation 18.37 16.80  
Snow  
Snow 0.00 in 0.00 in 0.00 in (2001)
Month to date snowfall 0.0 0.0  
Since 1 July snowfall 85.2 64.1  
Snow Depth 0.00 in    
Sea Level Pressure  
Sea Level Pressure 30.29 in    
Wind  
Wind Speed 7 mph (South)    
Max Wind Speed 16 mph    
Max Gust Speed 20 mph    
Visibility 10 miles    
Events      
T = Trace of Precipitation, MM = Missing Value Source: NWS Daily Summary

Daily Weather History Graph

Daily Weather History Graph

Search for Another Location

Airport or City:

Trip Planner

Search our weather history database for the weather conditions in past years. The results will help you decide how hot, cold, wet, or windy it might be!

Date:

Astronomy

May. 14, 2014 Rise Set
Actual Time 5:27 AM EDT 8:00 PM EDT
Civil Twilight 4:55 AM EDT 8:33 PM EDT
Nautical Twilight 4:15 AM EDT 9:13 PM EDT
Astronomical Twilight 3:30 AM EDT 9:58 PM EDT
Moon 8:02 PM EDT (5/14) 5:24 AM EDT (5/14)
Length of Visible Light 15h 37m
Length of Day
14h 33m
Full, 100% of the Moon is Illuminated
May 14
Full
May 14
Full
May 21
Last Quarter
May 28
New
Jun 5
First Quarter

Hourly Weather History & Observations

Time (EDT) Temp. Windchill Dew Point Humidity Pressure Visibility Wind Dir Wind Speed Gust Speed Precip Events Conditions
12:54 AM 44.1 °F 42.5 °F 37.0 °F 76% 30.32 in 10.0 mi East 3.5 mph - N/A   Clear
1:54 AM 44.1 °F 41.5 °F 36.0 °F 73% 30.30 in 10.0 mi ESE 4.6 mph - N/A   Clear
2:54 AM 44.1 °F - 35.1 °F 71% 30.31 in 10.0 mi Calm Calm - N/A   Overcast
3:54 AM 44.1 °F 42.5 °F 36.0 °F 73% 30.31 in 10.0 mi East 3.5 mph - N/A   Overcast
4:54 AM 44.6 °F - 37.4 °F 76% 30.30 in 10.0 mi Calm Calm - N/A   Mostly Cloudy
5:54 AM 44.1 °F - 37.9 °F 79% 30.32 in 10.0 mi Calm Calm - N/A   Overcast
6:54 AM 45.0 °F 42.6 °F 37.9 °F 76% 30.31 in 10.0 mi South 4.6 mph - N/A   Clear
7:54 AM 46.0 °F 43.9 °F 39.0 °F 76% 30.32 in 10.0 mi SSE 4.6 mph - N/A   Overcast
8:54 AM 48.9 °F - 37.9 °F 66% 30.34 in 10.0 mi Variable 4.6 mph - N/A   Scattered Clouds
9:54 AM 52.0 °F - 37.9 °F 59% 30.32 in 10.0 mi SSE 8.1 mph - N/A   Clear
11:54 AM 61.0 °F - 41.0 °F 48% 30.32 in 10.0 mi East 6.9 mph - N/A   Scattered Clouds
12:54 PM 66.0 °F - 37.9 °F 36% 30.30 in 10.0 mi SSW 11.5 mph - N/A   Overcast
1:54 PM 68.0 °F - 41.0 °F 37% 30.29 in 10.0 mi South 12.7 mph - N/A   Overcast
2:54 PM 70.0 °F - 41.0 °F 35% 30.28 in 10.0 mi SSE 13.8 mph - N/A   Mostly Cloudy
3:54 PM 71.1 °F - 42.1 °F 35% 30.26 in 10.0 mi South 11.5 mph - N/A   Partly Cloudy
4:54 PM 71.1 °F - 41.0 °F 34% 30.25 in 10.0 mi SSE 6.9 mph - N/A   Scattered Clouds
5:54 PM 71.1 °F - 42.1 °F 35% 30.25 in 10.0 mi SSW 10.4 mph - N/A   Clear
6:54 PM 68.0 °F - 48.9 °F 50% 30.26 in 10.0 mi SSW 10.4 mph - N/A   Overcast
7:54 PM 64.9 °F - 52.0 °F 63% 30.28 in 10.0 mi South 11.5 mph - N/A   Overcast
8:09 PM 64.0 °F - 52.0 °F 65% 30.27 in 10.0 mi South 8.1 mph - N/A   Overcast
8:27 PM 63.0 °F - 53.1 °F 70% 30.27 in 10.0 mi South 12.7 mph - N/A   Overcast
8:54 PM 62.1 °F - 54.0 °F 75% 30.29 in 10.0 mi SSW 12.7 mph - N/A   Overcast
9:54 PM 61.0 °F - 55.0 °F 81% 30.30 in 10.0 mi SSW 11.5 mph - N/A   Overcast
10:06 PM 60.1 °F - 55.0 °F 83% 30.30 in 10.0 mi SSW 9.2 mph - N/A   Overcast
10:54 PM 60.1 °F - 55.0 °F 83% 30.30 in 10.0 mi SW 6.9 mph - N/A   Overcast
11:54 PM 60.1 °F - 54.0 °F 80% 30.29 in 10.0 mi SSW 9.2 mph - N/A   Overcast